Find Starlink 5910

NORAD ID: 56000 Int'l Des: 2023-042 Owner: SPXS Country: US Constellation: starlink operational
LEOCIRCULAR

当前视图

正在加载3D地球...

About Starlink 5910

Starlink 5910 (NORAD 56000) is a starlink constellation satellite (v1.5) launched Mar 24, 2023 by SPXS of US. It operates in LEO, CIRCULAR orbit with a mass of 305.00 kg.

关于 Starlink 5910

正在加载描述...

即将过境

Passes for default location (London). Set your location on the main map for personalized predictions.

高度历史

Loading altitude history...

两行轨道根数

1 56000U 23042Q 26170.12672058 -.00000146 00000-0 42329-5 0 9996
2 56000 43.0018 206.6746 0001480 275.2991 84.7692 15.27576160178381
Epoch: Jun 19, 2026 • Age: 13 hours

当前状态

高度 484.1 km
速度 7.63 km/s
星下点 28.02°N, 161.76°W
发射日期 Mar 24, 2023
运行时间 3.2 years
类型 internet

技术详情

分类 Payload
质量 305.00 kg
干质量 290.00 kg
总质量 305.00 kg
长度 0.20 m
直径 2.80 m
跨度 9.00 m
形状 Box + pan
制造商 SPXS
平台类型 Starlink
阶段状态 In Orbit
所有者/国家 SPXS/US

Most Searched